Englewood, CO

5:11 AM MST on December 06, 2016 (GMT -0700)
Centennial

Weather History for KAPA - November, 2012

Change the Weather History Date:

Tuesday, November 13, 2012

  Actual Average Record
Temperature  
Mean Temperature 40 °F -  
Max Temperature 51 °F 50 °F 75 °F (1999)
Min Temperature 28 °F 26 °F -9 °F (2014)
Degree Days  
Heating Degree Days 25    
Month to date heating degree days 264  
Moisture  
Dew Point 18 °F    
Average Humidity 49    
Maximum Humidity 72    
Minimum Humidity 25    
Precipitation  
Precipitation 0.00 in - - ()
Month to date precipitation 0.23  
Year to date precipitation 13.64  
Sea Level Pressure  
Sea Level Pressure 30.24 in    
Wind  
Wind Speed 5 mph (ESE)    
Max Wind Speed 13 mph    
Max Gust Speed 16 mph    
Visibility 10 miles    
Events      
Averages and records for this station are not official NWS values.
T = Trace of Precipitation, MM = Missing Value Source: NWS Daily Summary

Daily Weather History Graph

Daily Weather History Graph

Search for Another Location

Airport or City:

Trip Planner

Search our weather history database for the weather conditions in past years. The results will help you decide how hot, cold, wet, or windy it might be!

Date:

Astronomy

Nov. 13, 2012 Rise Set
Actual Time 6:41 AM MST 4:45 PM MST
Civil Twilight 6:13 AM MST 5:13 PM MST
Nautical Twilight 5:40 AM MST 5:46 PM MST
Astronomical Twilight 5:08 AM MST 6:18 PM MST
Moon 6:22 AM MST (11/13) 4:40 PM MST (11/13)
Length of Visible Light 11h 00m
Length of Day
10h 03m
Waning Crescent, 0% of the Moon is Illuminated
Nov 13
Waning Crescent
Nov 13
New
Nov 20
First Quarter
Nov 28
Full
Dec 6
Last Quarter

Hourly Weather History & Observations

Time (MST) Temp. Windchill Dew Point Humidity Pressure Visibility Wind Dir Wind Speed Gust Speed Precip Events Conditions
12:53 AM 35.1 °F 28.6 °F 7.0 °F 31% 30.19 in 10.0 mi South 8.1 mph - N/A   Scattered Clouds
1:53 AM 34.0 °F - 12.9 °F 42% 30.19 in 10.0 mi Calm Calm - N/A   Clear
2:53 AM 33.1 °F - 14.0 °F 46% 30.18 in 10.0 mi Calm Calm - N/A   Partly Cloudy
3:53 AM 32.0 °F - 15.1 °F 50% 30.19 in 10.0 mi Calm Calm - N/A   Scattered Clouds
4:53 AM 28.9 °F 22.8 °F 17.1 °F 61% 30.23 in 10.0 mi SSW 5.8 mph - N/A   Mostly Cloudy
5:53 AM 30.0 °F - 17.1 °F 59% 30.25 in 10.0 mi Calm Calm - N/A   Mostly Cloudy
6:53 AM 32.0 °F 28.7 °F 17.1 °F 54% 30.25 in 10.0 mi SSE 3.5 mph - N/A   Mostly Cloudy
7:53 AM 37.0 °F - 19.9 °F 50% 30.26 in 10.0 mi Calm Calm - N/A   Scattered Clouds
8:53 AM 41.0 °F - 16.0 °F 36% 30.26 in 10.0 mi Calm Calm - N/A   Scattered Clouds
9:53 AM 46.0 °F 41.9 °F 17.1 °F 31% 30.23 in 10.0 mi North 8.1 mph - N/A   Scattered Clouds
10:53 AM 46.9 °F - 17.1 °F 30% 30.22 in 10.0 mi NNE 10.4 mph - N/A   Scattered Clouds
11:53 AM 48.9 °F - 16.0 °F 27% 30.19 in 10.0 mi NNE 5.8 mph - N/A   Partly Cloudy
12:47 PM 62.6 °F - 26.6 °F 26% 30.18 in 30.0 mi Variable 5.8 mph - N/A   Scattered Clouds
12:53 PM 50.0 °F - 17.1 °F 27% 30.17 in 10.0 mi North 9.2 mph - N/A   Partly Cloudy
1:53 PM 50.0 °F - 17.1 °F 27% 30.18 in 10.0 mi NE 9.2 mph - N/A   Partly Cloudy
2:53 PM 51.1 °F - 17.1 °F 26% 30.18 in 10.0 mi North 5.8 mph - N/A   Partly Cloudy
3:53 PM 48.9 °F - 19.0 °F 31% 30.20 in 10.0 mi ENE 6.9 mph - N/A   Partly Cloudy
4:53 PM 43.0 °F 40.3 °F 21.0 °F 42% 30.26 in 10.0 mi SE 4.6 mph - N/A   Partly Cloudy
5:53 PM 36.0 °F 29.6 °F 24.1 °F 62% 30.31 in 10.0 mi ESE 8.1 mph - N/A   Partly Cloudy
6:53 PM 37.0 °F 30.4 °F 21.9 °F 54% 30.31 in 10.0 mi SSE 9.2 mph - N/A   Clear
7:53 PM 30.9 °F 24.3 °F 23.0 °F 72% 30.34 in 10.0 mi ESE 6.9 mph - N/A   Clear
8:53 PM 30.9 °F 24.3 °F 21.0 °F 67% 30.34 in 10.0 mi South 6.9 mph - N/A   Clear
9:53 PM 32.0 °F 24.2 °F 21.9 °F 66% 30.31 in 10.0 mi SSE 9.2 mph - N/A   Clear
10:53 PM 33.1 °F 28.7 °F 19.9 °F 59% 30.29 in 10.0 mi SSE 4.6 mph - N/A   Clear
11:53 PM 30.9 °F 25.2 °F 19.9 °F 64% 30.27 in 10.0 mi SE 5.8 mph - N/A   Clear